Regional Weather Roundup
Issued by NWS

Home | Current Version | Previous Version | Graphics & Text | Print | Product List | Glossary On
Versions: 1 2 3 4 5 6 7 8 9 10 11 12 13 14 15 16 17 18 19 20 21 22 23 24 25 26 27 28 29 30 31 32 33 34 35 36 37 38 39 40 41 42 43 44 45 46 47 48 49 50
640
ASUS43 KDMX 240308
RWRIA

WEATHER ROUNDUP FOR IOWA
NATIONAL WEATHER SERVICE DES MOINES IA
1000 PM CDT MON MAY 23 2016

NOTE: "FAIR" INDICATES FEW OR NO CLOUDS BELOW 12,000 FEET WITH NO
SIGNIFICANT WEATHER AND/OR OBSTRUCTIONS TO VISIBILITY.

* - THESE STATIONS ARE NOT NWS STATIONS...THUS NOT UNDER NWS
QUALITY CONTROL.  THEY ALSO DO NOT REPORT WEATHER SUCH
AS PRECIPITATION OR FOG.

IAZ001>003-012>014-020>022-031>034-043>046-240400-
   NORTHWEST IOWA

CITY           SKY/WX    TMP DP  RH WIND       PRES   REMARKS
CARROLL *      CLEAR     64  61  88 SE7       29.82R
CHEROKEE *     LGT RAIN  64  64 100 CALM      29.81R
DENISON *      CLEAR     64  63  94 CALM      29.80R
LE MARS *      CLOUDY    64  64 100 SE5       29.80R
ORANGE CITY *  PTCLDY    64  63  94 CALM      29.79R
SHELDON *      CLEAR     64  63  94 S7        29.77S
SIOUX CITY       N/A    N/A N/A N/A MISG      29.78R
SPENCER        CLOUDY    65  60  84 S8        29.79F
STORM LAKE *   CLOUDY    64  63  94 S6        29.83R
$$

IAZ055>058-069>071-079>083-090>094-240400-
   SOUTHWEST IOWA

CITY           SKY/WX    TMP DP  RH WIND       PRES   REMARKS
ATLANTIC *     CLEAR     66  59  77 S7        29.83R
AUDUBON *      CLEAR     63  57  82 S3        29.83R
CLARINDA *       N/A     66  63  88 MISG      29.85R
COUNCIL BLFS * CLEAR     64  61  88 S8        29.82R
CRESTON *      CLEAR     63  61  94 SE6       29.85S
HARLAN  *        N/A    N/A N/A N/A MISG        N/A
LAMONI         CLEAR     65  61  87 S7        29.85R
RED OAK *      CLEAR     64  61  88 S7        29.83R
SHENANDOAH *   MOCLDY    68  63  83 SE13      29.83R
$$

IAZ047>049-059>061-072>074-084-240400-
   CENTRAL IOWA

CITY           SKY/WX    TMP DP  RH WIND       PRES   REMARKS
AMES           CLOUDY    64  59  83 SE5       29.83S
ANKENY *       CLEAR     63  63 100 CALM      29.83F
BOONE *        CLEAR     66  61  82 SE10      29.83S
CHARITON *     PTCLDY    66  61  82 SE6       29.86S
DES MOINES     CLOUDY    69  59  70 SE7       29.84R
GRINNELL*      CLOUDY    68  54  60 SE6       29.87R
KNOXVILLE *    CLOUDY    70  59  68 SE5       29.85R
MARSHALLTOWN   MOCLDY    69  56  62 S5        29.84R
NEWTON *       CLOUDY    68  55  64 S5        29.85S
PELLA *        CLOUDY    70  55  60 S3        29.87R
PERRY *          N/A     64  61  88 SE6       29.83R
$$

IAZ004>006-015-016-023>025-035-036-240400-
   NORTH CENTRAL IOWA

CITY           SKY/WX    TMP DP  RH WIND       PRES   REMARKS
ALGONA *       MOCLDY    66  63  88 S6        29.85R
CLARION *      CLEAR     64  63  94 S9        29.83R
ESTHERVILLE    LGT RAIN  65  63  93 W7        29.82R
FORT DODGE *   CLOUDY    66  57  72 S9        29.84R
MASON CITY     MOCLDY    66  61  84 SW7       29.84R
FOREST CITY *  PTCLDY    64  61  88 SW3       29.84R
WEBSTER CITY * CLEAR     66  61  82 S12       29.82R
IOWA FALLS *     N/A     68  59  73 S9        29.85R
$$

IAZ007>011-017>019-026>030-037>042-050>054-066-240400-
   NORTHEAST IOWA

CITY           SKY/WX    TMP DP  RH WIND       PRES   REMARKS
CEDAR RAPIDS   MOCLDY    68  53  58 S6        29.86R
CHARLES CITY * CLOUDY    68  64  88 S7        29.84R
CLINTON *      MOCLDY    69  49  48 S6        29.89R
DECORAH *      CLOUDY    70  61  73 S5        29.84R
DUBUQUE        CLOUDY    66  47  50 S5        29.88R
MONTICELLO *   CLEAR     68  48  49 SE3       29.87R
OELWEIN *      CLEAR     68  54  60 S9        29.87R
WATERLOO       CLEAR     68  55  63 S7        29.84R
$$

IAZ064-065-067-068-078-240400-
   EAST CENTRAL IOWA

CITY           SKY/WX    TMP DP  RH WIND       PRES   REMARKS
DAVENPORT      PTCLDY    65  47  52 S8        29.89R
IOWA CITY      MOCLDY    69  53  56 CALM      29.88R
MT. PLEASANT * CLOUDY    70  54  56 SE7       29.89R
MUSCATINE *    CLEAR     66  52  59 S3        29.88R
QUAD CITIES    PTCLDY    65  50  58 CALM      29.88R
$$

IAZ062-063-075>077-085>089-095>099-240400-
   SOUTHEAST IOWA

CITY           SKY/WX    TMP DP  RH WIND       PRES   REMARKS
BURLINGTON     CLOUDY    70  51  51 S7        29.89R
FAIRFIELD *      N/A    N/A N/A N/A MISG        N/A
FORT MADISON * CLEAR     72  52  49 S6        29.91R
KEOKUK *       CLEAR     72  52  49 SW7       29.90R
OSKALOOSA *      N/A     66  54  63 S7        29.88R
OTTUMWA        PTCLDY    70  53  54 S8        29.87R
WASHINGTON *   CLEAR     66  54  63 SW8       29.90R
$$

ABBREVIATIONS USED IN REMARKS
   TC - TEMPERATURES IN CELSIUS
  WCI - WIND CHILL INDEX
   HX - HEAT INDEX
  VSB - VISIBILITY
$$





USA.gov is the U.S. government's official web portal to all federal, state and local government web resources and services.